Location: Drummondville
(45.8830°N, 72.4830°W)
Time: 17:43:46
(UTC-05:00)

Vanguard 2 - All Passes

Search period start: 21 January 2018 00:00
Search period end: 31 January 2018 00:00
Orbit: 553 x 2939 km, 32.9° (Epoch: 21 January)

Date Brightness Start Highest point End Pass type
(mag) Time Alt. Az. Time Alt. Az. Time Alt. Az.
21 Jan - 01:49:21 10° S 01:54:15 18° SE 02:00:39 10° ESE visible
21 Jan - 03:53:49 10° SW 04:02:01 39° SSE 04:14:38 10° ESE visible
21 Jan - 06:01:06 10° WSW 06:11:41 45° S 06:26:58 10° ESE visible
21 Jan - 08:10:16 10° W 08:22:11 34° SSW 08:36:54 10° SSE daylight
21 Jan - 10:23:53 10° WSW 10:32:10 16° SW 10:40:55 10° S daylight
22 Jan - 02:06:03 10° SSW 02:11:39 22° SE 02:19:30 10° ESE visible
22 Jan - 04:11:27 10° SW 04:19:48 41° SSE 04:32:44 10° ESE visible
22 Jan - 06:19:04 10° WSW 06:29:36 42° S 06:44:38 10° SE visible
22 Jan - 08:28:45 10° W 08:39:59 29° SSW 08:53:34 10° SSE daylight
22 Jan - 10:47:12 10° SW 10:49:43 10° SW 10:52:16 10° SW daylight
23 Jan - 02:23:08 10° SSW 02:29:10 27° SSE 02:37:59 10° ESE visible
23 Jan - 04:29:11 10° WSW 04:37:38 42° S 04:50:45 10° ESE visible
23 Jan - 06:37:08 10° WSW 06:47:31 39° SSW 07:02:05 10° SE visible
23 Jan - 08:47:36 10° WSW 08:57:45 23° SSW 09:09:42 10° S daylight
24 Jan - 02:40:29 10° SW 02:46:47 31° SSE 02:56:18 10° ESE visible
24 Jan - 04:47:01 10° WSW 04:55:31 42° S 05:08:39 10° ESE visible
24 Jan - 06:55:18 10° WSW 07:05:26 34° SSW 07:19:18 10° SE daylight
24 Jan - 09:07:05 10° WSW 09:15:29 18° SW 09:25:03 10° S daylight
25 Jan - 00:53:55 10° S 00:57:07 14° SE 01:01:03 10° ESE visible
25 Jan - 02:58:00 10° SW 03:04:29 34° SSE 03:14:28 10° ESE visible
25 Jan - 05:04:55 10° WSW 05:13:25 39° S 05:26:25 10° ESE visible
25 Jan - 07:13:40 10° WSW 07:23:20 29° SSW 07:36:08 10° SSE daylight
25 Jan - 09:28:13 10° WSW 09:33:12 12° SW 09:38:32 10° SSW daylight
26 Jan - 01:10:30 10° S 01:14:35 18° SSE 01:19:59 10° ESE visible
26 Jan - 03:15:40 10° SW 03:22:16 36° S 03:32:32 10° ESE visible
26 Jan - 05:22:55 10° WSW 05:31:22 36° S 05:43:59 10° SE visible
26 Jan - 07:32:20 10° WSW 07:41:12 23° SSW 07:52:31 10° SSE daylight
27 Jan - 01:27:35 10° SSW 01:32:09 22° SSE 01:38:28 10° ESE visible
27 Jan - 03:33:26 10° WSW 03:40:06 36° S 03:50:29 10° ESE visible
27 Jan - 05:41:02 10° WSW 05:49:17 32° SSW 06:01:18 10° SE visible
27 Jan - 07:51:32 10° WSW 07:59:03 18° SSW 08:08:10 10° S daylight
28 Jan - 01:44:57 10° SW 01:49:47 26° SSE 01:56:44 10° ESE visible
28 Jan - 03:51:17 10° WSW 03:57:58 35° S 04:08:18 10° ESE visible
28 Jan - 05:59:20 10° WSW 06:07:13 27° SSW 06:18:18 10° SSE visible
28 Jan - 08:12:04 10° SW 08:16:54 13° SSW 08:22:19 10° SSW daylight
28 Jan - 23:59:04 10° SSE 00:00:23 11° SE 00:01:46 10° SE night (unlit)
29 Jan - 02:02:31 10° SW 02:07:31 28° SSE 02:14:51 10° ESE visible
29 Jan - 04:09:15 10° WSW 04:15:53 32° S 04:25:57 10° SE visible
29 Jan - 06:17:54 10° WSW 06:25:09 22° SSW 06:34:51 10° SSE visible
30 Jan - 00:15:12 10° S 00:17:54 14° SSE 00:21:09 10° ESE night (unlit)
30 Jan - 02:20:13 10° SW 02:25:18 29° S 02:32:50 10° ESE visible
30 Jan - 04:27:19 10° WSW 04:33:48 28° S 04:43:22 10° SE visible
30 Jan - 06:36:59 10° WSW 06:43:05 17° SSW 06:50:43 10° S visible
